Location: Braunsdorf
(50.7357°N, 11.9136°E)
Time: 16:51:25
(UTC+00:00)

Cosmos 1238 Rocket - Pass Details

Date: 17 February 2020
Orbit: 374 x 1032 km, 83.0° (Epoch: 29 March)

Event Time Altitude Azimuth Distance (km) Brightness Sun altitude
Rises 04:29:06 0° 351° (N) 3,769 7.0 -18.4°
Reaches altitude 10° 04:31:50 10° 355° (N) 2,773 6.4 -18.0°
Maximum altitude 04:38:12 62° 76° (ENE) 1,024 4.4 -17.0°
Drops below altitude 10° 04:43:42 10° 157° (SSE) 2,404 6.4 -16.1°
Sets 04:45:56 0° 161° (SSE) 3,236 7.0 -15.8°
